Location: Unspecified
(33.6682°S, 0.0000°E)
Time: 14:00:01
(UTC+00:00)

Transit 2A - Visible Passes

Search period start: 24 June 2019 00:00
Search period end: 04 July 2019 00:00
Orbit: 593 x 966 km, 66.7° (Epoch: 23 June)

Date Brightness Start Highest point End Pass type
(mag) Time Alt. Az. Time Alt. Az. Time Alt. Az.
29 Jun 8.2 19:32:00 10° SSW 19:32:52 15° SSW 19:32:52 15° SSW visible
30 Jun 7.2 18:58:05 10° SSW 19:00:55 29° S 19:00:55 29° S visible
01 Jul 6.9 18:24:19 10° S 18:29:03 30° ESE 18:29:35 29° ESE visible
01 Jul 8.0 20:07:14 10° SW 20:10:14 27° WSW 20:10:14 27° WSW visible
02 Jul 7.3 17:50:45 10° S 17:54:48 21° SE 17:59:05 10° ENE visible
02 Jul 6.9 19:32:49 10° SW 19:38:11 52° WNW 19:40:32 33° N visible
03 Jul 6.3 18:58:36 10° SSW 19:04:06 79° WNW 19:10:07 10° NNE visible
